This is the latest recevied weather packets stored in our database for station/object CQ0XPG-11. If no packets are shown the sender has not sent any weather packets the latest 10 day(s).
| Time | Temp. | Humidity | Pressure | Rain* | Wind** | Luminosity | Snow |
|---|---|---|---|---|---|---|---|
| 1777640590 | 19.44° C | 55% | 1009 hPa | 0 mm | - | - | - |
| 1777640287 | 19.44° C | 57% | 1008.9 hPa | 0 mm | - | - | - |
| 1777640005 | 19.44° C | 58% | 1008.9 hPa | 0 mm | - | - | - |
| 1777639373 | 20° C | 56% | 1009 hPa | 0 mm | - | - | - |
| 1777639100 | 20° C | 55% | 1009.1 hPa | 0 mm | - | - | - |
| 1777638769 | 20° C | 54% | 1009.1 hPa | 0 mm | - | - | - |
| 1777638189 | 19.44° C | 63% | 1009.2 hPa | 0 mm | - | - | - |
| 1777637857 | 18.89° C | 72% | 1009.3 hPa | 0 mm | - | - | - |
| 1777637560 | 18.33° C | 71% | 1009.4 hPa | 0 mm | - | - | - |
| 1777637269 | 18.33° C | 69% | 1009.4 hPa | 0 mm | - | - | - |
| 1777636966 | 18.33° C | 74% | 1009.6 hPa | 0 mm | - | - | - |
| 1777636389 | 18.33° C | 66% | 1009.7 hPa | 0 mm | - | - | - |
| 1777636049 | 18.33° C | 73% | 1009.7 hPa | 0 mm | - | - | - |
| 1777635734 | 18.33° C | 75% | 1009.8 hPa | 0 mm | - | - | - |
| 1777635465 | 17.78° C | 73% | 1009.9 hPa | 0 mm | - | - | - |
| 1777635138 | 17.78° C | 75% | 1009.9 hPa | 0 mm | - | - | - |
| 1777634831 | 17.78° C | 90% | 1010 hPa | 0 mm | - | - | - |
| 1777634562 | 17.22° C | 89% | 1010 hPa | 0 mm | - | - | - |
| 1777634241 | 17.22° C | 90% | 1010.1 hPa | 0 mm | - | - | - |
| 1777633924 | 17.22° C | 94% | 1010.1 hPa | 0 mm | - | - | - |
| 1777633655 | 17.22° C | 100% | 1010.1 hPa | 0 mm | - | - | - |
| 1777633321 | 16.67° C | 100% | 1010.2 hPa | 0 mm | - | - | - |
| 1777633034 | 17.22° C | 95% | 1010.2 hPa | 0 mm | - | - | - |
| 1777632743 | 17.22° C | 100% | 1010.1 hPa | 0 mm | - | - | - |
| 1777632423 | 16.67° C | 100% | 1010.2 hPa | 0 mm | - | - | - |
* Rain since midnight (hover to see other rain measurements)
** Current wind speed in m/s (hover to see current wind gust speed)